Regional Weather Roundup
Issued by NWS Cleveland, OH

Home | Current Version | Previous Version | Graphics & Text | Print | Product List | Glossary On
Versions: 1 2 3 4 5 6 7 8 9 10 11 12 13 14 15 16 17 18 19 20 21 22 23 24 25 26 27 28 29 30 31 32 33 34 35 36 37 38 39 40 41 42 43 44 45 46 47 48 49 50
000
ASUS41 KCLE 020900
RWRCLE
OHIO REGIONAL WEATHER ROUNDUP
NATIONAL WEATHER SERVICE WILMINGTON, OH
500 AM EDT THU OCT 02 2014

NOTE: "FAIR" INDICATES FEW OR NO CLOUDS BELOW 12,000 FEET WITH NO
SIGNIFICANT WEATHER AND/OR OBSTRUCTIONS TO VISIBILITY.

OHZ001>008-015>018-024>027-034-035-043-044-021000-
   NORTHWEST OHIO

CITY           SKY/WX    TMP DP  RH WIND       PRES   REMARKS
DEFIANCE       CLEAR     50  47  89 E3        30.00F FOG
FINDLAY        CLEAR     53  50  89 SE8       30.01F FOG
TOLEDO EXPRESS CLEAR     50  50 100 CALM      30.02S FOG
TOLEDO METCALF CLEAR     50  48  93 E3        30.03F FOG
LIMA           PTCLDY    55  51  86 SE8       30.01F
$$

OHZ009>014-019>023-028>033-038-089-021000-
   NORTHEAST OHIO

CITY           SKY/WX    TMP DP  RH WIND       PRES   REMARKS
CLE-HOPKINS    PTCLDY    49  49 100 CALM      30.07R FOG
CLE-LAKEFRONT  CLEAR     56  53  90 S9        30.04R
CUY CO. ARPT   NOT AVBL
LORAIN-ELYRIA  FOG       50  46  86 SW3       30.06R VSB 1/4
ASHTABULA      FOG       50  50 100 CALM      30.07S VSB 1/2
AKRON-CANTON   FOG       51  48  89 CALM      30.06R VSB 1
WOOSTER        NOT AVBL
MANSFIELD      CLEAR     46  46 100 S5        30.06R FOG
YOUNGSTOWN     FOG       47  46  97 E7        30.05F VSB 1
$$

OHZ042-051>053-060>062-070>072-077>081-021000-
  SOUTHWEST OHIO

CITY           SKY/WX    TMP DP  RH WIND       PRES   REMARKS
CINC-COVINGTON MOCLDY    60  53  77 E6        30.00S
CINC-LUNKEN    CLOUDY    54  53  97 CALM      30.02S
HAMILTON       PTCLDY    52  51  97 CALM      30.02S
DAYTON         NOT AVBL
WRIGHT-PAT AFB PTCLDY    53  50  89 N2        30.02F
DAYTON GENERAL MOCLDY    58  49  72 E3        30.01S
WILMINGTON     MOCLDY    53  46  77 E6        30.03S
$$

OHZ036-037-039>041-045>050-054>059-063>069-073>076-082>088-021000-
  CENTRAL AND SOUTHEAST OHIO

CITY           SKY/WX    TMP DP  RH WIND       PRES   REMARKS
COLUMBUS       CLEAR     50  48  93 CALM      30.04R FOG
OSU AIRPORT    CLEAR     49  48  97 CALM      30.05R FOG
BOLTON FIELD   NOT AVBL
RICKENBACK AFB NOT AVBL
NEWARK         FOG       43  41  93 CALM      30.06R VSB 1/2
MARION         CLEAR     50  48  93 S6        30.05R FOG
LANCASTER      CLEAR     45  43  93 CALM      30.06R FOG
ZANESVILLE     FOG       46  44  93 CALM      30.06R VSB 1/4
NEW PHILLY     FOG       50  50 100 CALM      30.07R VSB 1/4
$$


USA.gov is the U.S. government's official web portal to all federal, state and local government web resources and services.